RH
37 36 35 34 32 30 29 28 27 27 27 27 27 28 30 30 32 33 34 34 32 31 27 24 25 22 20 19 19 17 19 23 25 48 53 19 4 6 10 16 15 15 14 10 11 16 16 20 26 24 31 33 38 43 40 64 84 81 88 96 99 98 98 92 84 87 86 86 88 86 82 71 69 73 69 65 65 67 68 65 59 57 57 58 62 65 69 75
30 29 28 27 27 26 25 24 24 24 23 24 24 26 27 29 30 31 33 33 32 31 29 27 24 22 19 19 21 21 29 37 51 73 46 6 6 8 11 20 19 17 12 10 11 15 19 22 25 26 31 35 38 45 55 73 79 82 95 99 97 94 93 84 78 87 84 80 89 90 82 69 69 76 67 67 73 68 70 69 62 63 64 63 65 68 73 77
27 26 25 24 24 23 23 23 22 22 22 22 23 24 26 27 29 29 30 31 31 30 31 28 24 22 17 21 26 25 42 58 61 57 28 9 11 7 12 19 20 21 14 11 11 10 16 18 18 22 29 34 36 46 67 80 78 84 94 97 96 88 87 83 79 87 86 84 88 89 83 71 72 77 69 69 74 69 71 69 66 71 72 70 69 70 75 77
26 25 24 23 22 21 21 21 20 20 20 20 20 21 21 22 26 28 30 31 31 30 31 28 25 22 17 25 30 33 56 62 42 29 21 16 13 9 11 15 19 23 18 14 11 9 11 13 13 17 24 31 34 43 66 78 77 82 84 88 91 86 89 88 81 86 88 84 85 87 82 75 77 76 69 68 73 74 70 62 64 70 71 72 71 71 74 77
25 25 24 22 21 20 20 20 19 19 19 19 19 19 19 18 22 25 28 31 32 33 31 27 26 20 20 30 37 50 57 44 28 24 24 16 13 14 10 13 21 21 18 13 12 10 9 10 13 19 23 30 35 40 59 70 73 80 80 81 83 83 92 91 83 87 88 83 86 87 77 74 79 75 69 67 70 72 66 58 58 63 66 69 71 71 73 76
27 25 24 23 21 20 19 19 18 18 18 18 18 18 18 17 18 23 26 29 33 34 29 26 26 20 24 36 48 59 45 26 23 21 24 20 13 14 14 18 24 22 16 12 14 12 10 12 16 25 29 32 34 38 58 69 68 75 79 78 78 80 87 90 87 89 87 84 88 84 74 75 80 79 74 65 64 67 62 55 55 60 63 65 68 70 73 76
29 27 25 24 22 20 19 18 17 17 17 16 17 17 17 17 16 20 24 27 33 34 28 27 24 19 28 44 58 63 49 31 21 17 24 21 13 14 16 19 23 24 16 14 16 12 13 19 21 27 33 32 29 42 66 73 69 74 81 80 78 83 88 89 89 89 85 86 89 81 76 81 80 79 76 68 65 66 59 53 54 60 62 64 68 70 72 75
31 28 26 24 22 21 19 17 16 15 15 15 16 16 16 17 16 18 23 26 32 33 30 27 22 21 31 48 59 57 52 39 21 20 24 19 15 14 15 17 20 21 18 18 16 11 16 21 23 27 33 29 31 59 74 71 73 74 83 86 83 90 93 91 91 89 88 91 89 82 85 88 85 79 73 71 68 61 56 53 55 59 61 65 67 69 72 73
31 30 26 23 21 20 19 17 15 14 14 14 14 15 15 16 15 16 21 26 32 34 32 26 22 25 37 56 58 42 33 26 18 23 23 20 18 14 15 16 19 22 20 20 14 10 16 22 24 25 32 27 32 66 72 67 74 74 84 91 90 95 93 91 93 91 92 94 86 82 89 90 90 85 73 71 66 56 54 53 54 58 60 62 64 67 69 71
31 29 26 23 20 19 20 17 15 13 13 13 12 13 13 14 16 16 20 26 32 36 33 26 22 31 47 50 38 24 20 15 15 23 23 23 19 15 18 15 17 23 20 18 14 12 17 23 24 24 29 26 33 60 65 64 74 80 88 91 91 95 94 92 95 93 92 96 87 82 92 90 89 87 76 72 63 54 53 52 53 56 56 57 58 61 66 68
30 27 24 21 19 19 19 17 16 13 12 12 11 12 13 14 15 16 20 25 33 39 35 27 24 40 56 44 21 12 14 12 14 22 25 23 21 18 17 13 14 17 16 17 15 12 14 20 22 25 26 27 47 68 69 67 76 84 87 91 94 91 93 93 94 95 90 94 91 83 91 89 85 87 78 70 62 55 54 53 52 52 52 52 53 56 63 66
28 24 22 20 20 20 19 17 15 13 12 11 11 12 12 13 14 17 20 26 36 41 36 28 28 45 61 55 35 15 10 14 18 20 18 19 23 20 14 11 8 8 11 13 15 10 10 18 21 29 27 27 56 77 75 71 74 82 82 92 98 90 93 94 93 95 89 94 93 82 89 91 88 90 80 67 62 59 56 54 52 51 51 49 49 53 60 65
25 22 21 20 21 21 20 19 15 13 13 11 11 11 11 12 13 16 20 27 39 41 34 29 34 50 60 52 34 16 13 19 25 20 12 16 25 21 12 9 7 6 5 5 11 9 11 19 19 27 23 20 47 65 67 67 70 81 83 89 98 94 97 95 93 95 92 97 95 87 93 96 92 88 81 69 63 62 59 55 53 51 50 48 49 52 59 64
24 21 21 21 21 22 21 19 16 14 12 11 11 10 11 12 12 17 22 30 43 42 33 35 43 57 65 47 22 17 18 17 22 18 8 14 25 24 14 9 9 9 6 4 7 8 14 16 13 20 14 16 45 61 67 73 81 91 84 85 96 98 100 95 93 95 95 97 95 92 95 97 93 83 80 74 64 62 60 56 54 51 49 49 49 51 58 64
23 21 20 20 21 22 21 19 17 14 12 10 9 10 11 11 12 19 24 35 47 41 35 46 52 58 67 49 20 14 15 11 14 11 5 12 22 24 16 12 11 9 9 9 8 10 11 10 12 17 15 29 56 70 77 82 92 97 83 85 97 98 100 95 90 94 96 96 94 93 93 95 91 79 79 77 65 60 59 57 54 51 49 49 49 51 57 62
22 21 20 20 21 20 20 19 17 14 11 9 9 10 10 12 18 25 34 47 49 41 43 56 60 59 59 43 21 13 14 12 10 8 6 9 15 18 16 15 14 12 12 10 9 10 9 10 15 16 24 49 70 78 85 85 91 95 85 90 99 98 100 96 90 91 94 94 93 94 94 96 90 78 78 77 66 60 59 58 55 51 49 48 48 52 57 59
22 21 20 19 19 19 20 19 17 14 10 8 9 9 11 21 33 38 48 54 47 43 49 60 66 58 43 28 20 18 17 13 10 11 10 9 12 13 14 16 17 15 14 11 11 11 12 15 19 19 24 41 62 75 82 85 90 92 91 96 99 97 97 97 93 90 92 93 93 94 93 92 86 76 76 76 65 60 60 58 55 51 49 47 47 52 56 57
23 21 20 18 18 19 19 19 17 13 8 8 9 9 17 36 48 50 53 52 51 52 54 62 64 45 27 21 21 20 17 12 11 12 11 12 13 12 14 16 15 14 13 14 14 14 17 19 22 24 21 26 54 72 65 68 77 80 90 97 97 96 92 95 96 92 93 93 93 96 94 90 83 75 77 80 69 59 58 57 54 51 48 47 47 51 54 55
22 20 18 17 17 17 19 20 17 12 8 8 9 13 25 42 51 54 59 62 56 42 36 48 49 29 20 23 22 19 16 12 11 10 11 12 12 13 14 12 12 13 13 16 17 17 19 20 23 25 24 25 44 59 46 52 71 72 80 92 95 98 93 93 95 93 93 94 95 95 94 92 87 83 86 90 80 61 55 57 54 50 48 47 47 50 53 54
21 19 16 16 16 17 20 20 17 12 7 8 12 16 25 33 39 45 56 67 58 32 20 29 36 30 25 24 22 18 14 11 10 10 10 11 11 13 15 12 12 14 15 17 18 19 16 21 27 26 28 22 25 35 27 40 70 74 80 94 95 97 97 94 94 95 94 95 97 93 90 91 89 89 89 91 88 67 54 56 56 51 48 48 48 49 52 52
19 17 16 14 15 17 20 20 17 11 8 13 15 18 22 22 27 30 33 42 41 32 27 26 29 30 25 22 21 15 11 11 11 10 9 11 12 15 18 15 12 15 16 16 15 16 16 22 26 23 25 21 18 21 13 30 65 75 85 97 97 97 98 95 92 93 94 96 98 92 90 93 91 91 90 90 88 71 56 53 51 50 51 50 48 50 52 50
18 17 14 12 14 18 21 20 15 10 12 16 17 22 24 18 20 22 21 26 24 24 27 24 25 29 25 22 22 18 13 12 12 12 10 11 14 17 19 16 14 17 15 13 14 16 19 21 21 18 19 19 19 15 17 44 70 78 89 96 97 98 96 96 95 92 94 98 98 92 92 97 95 92 90 89 90 85 76 65 52 47 51 52 49 50 51 49
18 16 13 12 13 16 22 19 12 12 15 17 18 22 22 17 19 18 19 27 25 21 22 23 24 27 26 20 18 18 14 11 13 13 10 12 16 18 19 17 16 18 15 13 14 16 19 17 15 15 15 18 18 14 31 62 73 79 91 94 96 99 96 97 98 94 93 95 95 93 94 98 97 94 91 88 90 89 87 85 71 52 48 50 47 48 49 49
18 16 13 12 11 17 22 16 12 16 15 14 16 20 20 21 24 20 21 30 30 26 22 21 20 19 20 13 10 13 12 11 13 12 11 14 17 17 18 19 19 19 18 15 14 14 16 13 11 13 13 17 15 18 49 74 75 78 83 87 96 98 94 95 96 94 93 94 93 92 96 97 95 95 93 90 88 84 83 90 81 58 48 47 44 45 47 50
18 16 14 11 11 17 18 14 17 17 14 13 15 20 23 24 24 20 26 39 40 34 24 18 15 11 11 9 9 11 11 13 13 12 14 13 15 17 17 19 19 22 22 18 15 15 14 11 10 11 12 16 13 19 50 70 74 80 76 77 88 91 94 97 94 94 97 98 94 93 97 96 95 95 93 93 90 85 83 87 79 62 54 49 45 45 47 52
18 17 15 11 11 14 16 19 22 15 12 14 16 22 22 23 25 21 34 51 46 33 21 14 12 8 7 9 11 13 14 17 14 12 13 11 13 14 16 20 19 21 22 19 18 15 13 11 9 11 11 15 14 13 36 61 76 85 75 69 79 88 97 99 93 93 99 100 95 94 97 96 98 96 91 92 92 85 81 83 83 74 62 52 46 46 47 52
17 15 14 12 11 14 20 23 21 14 12 13 17 21 19 20 22 19 36 52 36 20 16 13 10 7 7 9 11 13 17 19 14 12 13 13 13 12 16 21 19 18 17 19 23 18 13 10 9 12 9 13 16 11 26 54 71 79 73 72 84 92 95 93 92 97 98 97 97 95 95 96 99 95 88 89 92 89 83 79 81 82 75 58 45 45 47 50
16 15 15 14 11 16 25 26 24 19 14 14 16 18 18 20 19 24 45 44 20 11 12 10 9 6 7 9 9 12 15 16 16 14 12 12 13 13 16 20 18 19 17 19 25 22 16 14 11 10 10 14 15 12 28 56 74 78 73 76 84 86 88 88 92 100 97 94 99 98 94 94 96 94 91 91 92 92 88 79 76 81 84 71 50 44 46 48
15 16 19 15 13 19 26 30 27 20 15 15 13 14 17 17 21 39 59 45 18 12 12 9 9 8 8 9 9 11 11 14 17 15 12 12 13 13 16 18 17 16 16 18 22 20 15 16 13 8 10 11 8 16 39 65 80 77 68 70 75 77 83 88 95 100 95 94 98 96 93 93 94 97 97 97 95 91 86 79 73 76 84 81 62 47 46 49
14 19 24 20 19 24 27 26 19 15 18 15 9 13 16 25 44 60 59 40 20 13 11 9 9 9 9 9 10 11 11 13 15 14 14 13 12 13 13 16 17 17 22 22 20 20 16 16 18 14 12 10 15 35 54 65 71 67 66 71 73 79 87 92 98 97 92 96 95 88 89 92 91 94 97 95 90 82 78 77 73 73 80 84 74 57 48 49
13 20 27 23 22 26 27 23 16 17 19 10 8 17 22 38 67 68 43 27 19 13 11 11 10 10 9 9 11 12 12 14 14 15 17 15 14 16 14 17 22 25 33 30 21 21 17 15 19 17 17 24 39 59 63 60 61 63 69 70 71 86 94 93 98 94 90 96 94 87 88 92 92 91 93 90 79 70 70 70 69 70 75 81 79 70 55 46
11 17 23 21 21 25 23 18 14 14 10 6 14 31 42 46 53 52 34 20 17 14 10 10 10 10 10 10 11 12 13 15 14 16 18 16 17 20 17 21 26 25 32 34 22 20 21 16 14 13 23 41 57 70 68 60 60 63 68 71 77 93 96 95 98 94 92 96 95 90 88 91 93 88 87 86 77 70 67 63 61 63 70 77 77 75 64 48
9 14 17 18 20 21 20 13 9 9 6 10 24 44 64 59 43 43 35 17 11 11 10 10 10 12 14 13 13 13 13 13 14 15 16 16 19 22 20 21 24 20 24 29 22 23 28 22 15 13 22 37 53 70 75 71 67 61 61 67 81 95 97 100 99 90 90 96 93 92 91 93 95 87 82 79 73 70 68 60 56 57 64 72 72 73 70 52
8 13 17 19 18 17 18 12 9 11 6 15 36 47 55 53 46 43 28 13 12 10 8 10 11 15 16 15 14 14 14 13 14 15 17 19 21 23 21 19 19 17 20 26 24 26 30 24 19 17 15 23 43 60 63 64 66 57 51 54 65 80 87 93 97 94 94 97 96 94 92 93 97 93 86 77 65 63 67 63 57 56 60 67 68 70 73 59
8 13 21 22 17 16 17 10 8 10 9 31 58 57 48 50 52 41 20 12 14 9 8 12 15 20 20 20 18 14 14 15 16 20 22 22 21 21 21 18 17 18 20 25 25 24 27 26 21 18 13 17 38 51 46 54 64 52 43 49 55 62 73 82 89 90 94 98 98 96 94 92 93 92 88 79 66 61 66 67 63 59 58 64 69 69 71 64
7 13 25 22 16 19 16 8 8 7 19 51 66 57 57 58 46 32 20 15 11 7 14 18 19 23 23 24 22 16 15 15 18 27 27 22 22 20 18 16 16 17 18 22 24 23 28 30 21 17 17 15 27 42 41 48 58 50 44 51 49 46 59 79 86 83 82 85 86 89 95 93 87 86 87 82 72 65 65 66 65 63 60 63 68 67 68 67
7 15 27 21 13 16 16 12 8 7 31 62 59 50 58 52 34 29 25 15 8 11 19 19 17 20 20 23 24 18 18 18 20 26 27 24 24 21 18 18 16 17 17 19 22 21 25 29 23 19 20 17 16 29 40 40 40 46 50 48 42 39 47 68 85 87 80 78 81 88 94 91 86 89 91 85 75 68 65 64 63 62 61 62 65 66 66 66
17 24 29 22 12 13 20 17 8 20 51 68 61 57 56 42 30 28 22 13 9 13 19 18 15 16 18 21 23 19 19 21 23 26 28 27 25 20 18 18 17 17 18 20 23 24 24 28 29 23 20 19 15 23 41 40 26 32 41 36 41 52 52 53 69 79 79 80 84 87 90 91 87 89 94 89 76 67 66 66 64 62 62 62 64 65 65 65
30 32 27 22 16 15 20 17 18 39 54 54 57 57 45 36 32 28 24 20 13 11 15 16 14 16 20 21 20 19 18 19 22 27 29 28 24 20 18 18 18 18 19 21 24 28 28 28 29 26 20 20 20 22 32 30 19 21 24 23 34 52 53 49 54 64 74 82 83 79 81 85 80 79 89 88 74 64 65 67 68 64 60 58 61 64 65 65
38 28 20 20 19 19 20 19 28 44 42 40 55 53 35 29 27 22 22 18 10 10 13 13 14 18 21 20 18 18 19 20 21 23 25 25 23 21 18 17 17 17 21 24 23 27 34 33 30 30 25 22 24 23 22 23 22 20 19 20 27 36 41 44 47 54 70 83 81 76 80 80 71 70 80 83 74 63 62 66 66 61 61 66 70 72 71 69
47 19 18 21 18 22 25 23 30 40 40 39 46 40 27 25 25 21 20 14 8 10 10 11 16 20 19 19 19 19 21 24 23 21 21 22 23 21 18 17 17 16 21 27 24 24 32 36 37 38 33 26 26 22 20 24 22 19 24 26 28 33 40 49 51 49 63 78 76 74 77 75 69 70 73 75 76 67 63 67 67 64 69 76 78 77 76 76
40 13 16 17 17 24 27 33 41 41 37 35 32 28 25 27 26 20 15 11 8 9 10 11 14 18 18 18 19 21 25 27 24 22 21 19 21 20 16 16 17 18 25 28 24 26 38 43 41 41 39 31 28 27 26 26 22 23 30 31 34 40 45 54 56 50 56 67 69 69 69 65 71 80 74 67 71 71 70 72 71 72 75 75 78 80 78 79
28 20 17 10 18 26 26 35 44 36 30 30 27 23 21 22 22 19 14 11 10 9 9 9 10 14 15 15 17 19 24 27 23 22 23 20 18 18 17 18 17 21 27 25 20 27 42 48 43 47 54 44 35 34 28 24 29 35 35 36 44 51 48 46 48 54 63 67 64 64 63 62 72 86 82 72 73 77 77 76 75 78 77 74 81 87 85 85
40 41 31 16 17 22 25 33 36 36 39 33 24 19 18 18 17 17 15 13 13 10 8 9 10 10 10 12 17 19 23 27 23 21 23 21 19 19 21 22 20 22 25 24 21 20 28 46 56 60 66 59 50 49 38 30 35 39 37 39 53 67 62 45 39 52 65 63 58 56 57 65 77 86 88 85 83 86 88 86 82 82 81 78 81 87 90 92
50 45 43 34 22 19 28 32 27 34 39 32 27 24 18 16 15 13 12 13 14 11 7 8 8 8 11 15 20 23 25 26 24 25 25 23 23 22 21 23 23 26 34 39 40 31 30 53 71 69 66 65 62 59 50 43 42 43 48 53 62 76 72 49 37 49 60 58 54 54 60 76 88 90 91 92 92 95 98 96 92 89 86 84 85 88 91 93
38 30 38 45 40 36 39 37 30 34 35 32 37 33 21 19 18 12 10 11 10 9 8 9 9 9 13 18 23 25 23 24 26 29 28 28 28 22 20 24 25 35 49 48 47 49 50 60 74 75 68 63 63 59 50 48 50 55 65 69 70 77 76 60 45 45 57 61 57 61 74 89 97 96 95 98 99 99 100 100 99 96 93 92 92 92 92 93
42 37 43 49 54 55 54 48 44 47 44 37 40 36 26 25 20 11 10 10 9 10 10 10 10 9 12 19 23 22 25 32 35 32 29 31 32 27 25 24 22 39 52 40 39 55 55 49 58 64 56 51 58 59 52 54 62 68 76 78 76 78 84 82 69 62 66 59 50 66 89 96 98 99 99 100 100 99 100 100 99 98 98 98 98 96 96 96
47 44 47 48 55 62 60 52 51 54 47 41 45 38 27 27 24 15 11 11 11 12 12 12 14 12 13 20 21 20 28 35 35 35 33 33 33 31 31 26 22 35 40 29 37 56 51 38 41 50 52 50 53 54 54 60 67 70 77 81 82 83 88 94 93 90 83 63 54 77 97 98 99 100 99 99 99 100 101 98 96 97 98 98 99 98 99 99
57 60 60 55 56 61 58 51 53 54 48 48 53 44 30 32 33 23 15 13 13 15 17 17 17 14 18 31 35 29 28 30 31 36 36 34 34 33 33 29 27 33 32 23 33 49 48 41 40 47 53 52 50 50 55 62 67 68 70 74 80 86 88 92 94 92 90 84 85 96 100 99 101 99 98 98 96 97 98 95 95 97 97 99 99 98 99 99
71 76 74 70 70 71 65 57 55 55 52 51 48 42 36 35 35 31 25 17 13 16 17 16 19 18 21 37 40 25 26 38 36 32 34 35 35 37 36 31 30 34 35 28 28 36 38 41 55 64 56 47 50 52 51 59 67 70 68 70 80 88 89 94 94 89 92 96 95 97 99 101 99 95 97 96 93 95 98 96 97 98 97 98 98 98 99 98
66 67 69 75 78 77 70 63 58 53 53 55 50 47 45 38 33 34 31 22 14 15 17 15 19 22 21 30 30 17 26 44 35 26 34 33 28 34 35 29 29 32 33 31 30 34 34 40 64 78 61 46 50 52 54 59 63 70 73 73 86 96 93 94 95 91 96 97 92 93 99 101 99 96 96 96 95 98 100 99 100 99 98 98 98 99 100 98
66 67 71 73 73 76 74 67 63 56 53 55 51 46 44 38 33 33 34 31 18 12 16 15 18 28 27 24 24 17 24 33 22 21 34 29 24 32 33 29 30 29 32 34 29 34 44 46 56 68 61 53 57 62 68 65 60 73 80 75 87 100 95 92 94 92 95 96 95 98 99 99 99 97 97 98 98 100 101 99 99 99 99 99 98 98 99 98
Wind_Speed
15 15 16 16 16 15 15 15 15 14 14 13 13 13 13 13 14 13 14 14 14 14 12 12 12 13 13 13 14 14 16 16 13 8 7 10 10 9 7 5 6 9 11 7 4 3 4 4 4 7 6 4 3 2 5 5 2 2 1 1 1 3 3 4 5 3 3 3 4 2 1 9 8 1 3 5 6 7 6 6 6 7 9 11 16 23 26 27
16 16 16 17 17 16 16 16 16 16 15 15 15 15 14 14 14 14 14 14 14 15 14 12 11 12 12 13 13 14 16 16 12 10 11 10 8 8 9 10 6 5 9 10 7 4 5 4 4 6 4 1 1 2 5 3 2 3 2 2 3 3 3 4 6 4 3 4 4 3 3 7 8 4 5 5 5 6 8 6 8 11 11 13 19 24 24 26
17 17 17 17 17 17 17 17 17 17 17 17 17 17 16 16 15 14 14 14 14 15 14 11 9 11 11 12 13 13 15 12 6 6 6 4 5 8 11 13 7 5 6 7 4 3 4 3 3 5 3 1 2 3 4 1 2 3 2 2 4 3 2 3 5 6 3 4 5 4 4 5 5 3 3 7 8 7 8 7 9 12 13 13 15 19 22 22
17 18 18 18 18 18 18 18 18 18 18 18 18 18 17 17 17 15 14 13 13 14 14 11 9 10 10 12 12 12 11 5 1 3 3 3 2 5 12 14 9 6 6 4 1 2 3 2 3 3 3 1 2 2 3 3 3 2 3 3 3 3 2 2 5 5 3 5 5 5 5 5 3 2 4 10 10 6 7 9 11 14 16 15 14 16 19 18
18 18 18 19 19 19 19 19 19 19 19 19 19 19 19 19 18 16 15 14 13 14 13 9 8 9 9 10 11 10 7 2 2 5 3 2 2 4 10 13 10 7 6 5 1 1 3 3 4 3 2 1 2 2 3 6 4 1 3 3 2 3 2 2 4 4 4 4 4 5 7 6 3 3 7 12 10 6 7 9 13 16 16 17 15 16 16 15
18 18 18 19 19 19 19 19 19 19 19 19 19 19 19 19 19 17 15 14 14 14 12 8 7 7 8 9 7 6 3 1 4 4 3 3 2 5 10 12 11 7 7 6 3 1 3 4 4 2 2 2 4 4 4 5 5 1 3 2 2 2 2 2 4 4 4 5 5 5 5 5 6 5 5 9 8 6 7 10 14 15 17 19 17 16 14 12
18 18 19 19 19 19 19 19 19 19 19 19 19 19 19 19 19 17 15 14 14 13 10 8 7 6 8 8 4 3 2 3 5 2 4 4 1 5 10 14 12 8 9 8 4 2 3 5 4 2 1 2 4 5 3 4 3 2 1 2 2 2 3 1 4 6 5 6 4 2 3 3 6 6 5 5 5 6 9 12 14 15 18 19 15 13 13 12
18 18 19 19 19 19 19 19 19 19 19 19 19 18 18 19 18 17 15 13 13 12 9 8 7 6 9 7 2 3 1 4 4 2 4 4 3 4 10 15 14 11 11 10 8 6 4 5 4 3 1 3 3 3 4 5 1 2 2 2 1 2 3 2 3 5 5 4 4 5 6 4 3 0 5 6 7 9 11 13 14 15 16 15 13 13 12 11
18 18 19 19 19 19 19 19 19 19 19 19 19 18 19 19 19 18 15 13 12 10 8 7 6 6 8 5 2 3 1 3 2 3 3 4 5 4 8 12 15 14 11 11 12 8 5 5 4 4 2 4 2 3 6 5 2 2 4 3 3 3 3 3 3 3 4 3 4 8 7 3 6 6 2 5 9 13 13 14 15 15 14 13 12 12 12 10
18 19 20 19 19 20 20 20 20 19 19 19 19 19 19 19 19 18 15 12 11 9 7 5 4 5 6 3 3 3 3 3 4 4 5 5 6 7 9 10 13 16 12 9 12 9 5 5 3 2 1 4 2 3 6 4 2 6 7 6 6 6 4 2 3 3 5 3 1 8 7 3 2 5 0 4 10 15 14 14 15 15 13 13 12 11 12 12
18 19 20 20 20 20 20 20 20 20 20 19 19 20 20 20 19 18 14 12 11 9 5 3 3 4 3 3 3 1 3 2 2 3 6 8 8 8 9 10 12 17 14 7 10 14 11 4 2 1 1 2 2 2 2 4 8 9 9 7 7 7 6 5 3 3 5 2 2 8 9 4 2 3 2 6 10 15 16 15 14 14 12 12 12 10 10 11
19 19 20 20 20 20 20 21 20 20 20 20 20 20 21 21 19 17 13 11 10 8 4 2 2 2 2 2 4 5 3 3 4 4 8 11 10 8 6 8 10 14 15 8 8 16 15 6 3 2 2 2 1 2 1 5 9 6 5 5 4 5 4 4 1 1 3 3 0 7 9 2 1 3 3 7 10 14 16 15 14 13 10 10 11 9 8 11
19 20 20 20 20 20 21 21 21 21 20 20 20 21 22 21 20 17 12 9 8 6 2 1 1 2 3 1 5 4 2 6 8 7 9 12 11 9 7 8 7 9 13 11 8 10 13 9 3 3 3 2 1 2 3 3 4 3 2 4 4 3 1 3 1 1 3 2 2 3 5 5 4 5 5 5 9 14 14 13 13 10 9 9 8 7 7 11
20 20 20 21 21 21 21 21 21 21 21 21 21 22 22 22 21 16 11 7 6 3 1 2 2 1 2 4 8 5 5 7 8 9 9 11 13 10 9 9 8 8 11 12 10 7 7 8 4 3 3 2 3 2 4 3 3 2 1 1 2 1 1 1 0 3 5 1 4 1 4 5 6 7 7 4 9 14 13 12 12 9 9 8 6 7 8 10
21 21 21 21 21 21 22 22 22 22 22 21 21 22 23 23 21 14 7 5 3 0 1 2 1 1 2 6 8 6 6 8 9 9 7 10 13 9 9 11 11 11 11 12 11 8 5 3 1 2 3 3 5 4 2 2 2 2 1 0 1 0 0 1 1 2 4 1 3 1 3 5 7 9 6 3 10 14 13 12 11 10 10 7 6 8 8 9
22 22 22 22 22 22 22 22 23 23 22 21 22 22 23 22 15 8 3 2 1 2 2 3 2 1 1 4 7 7 7 7 8 6 7 9 12 10 9 9 11 11 12 13 12 11 7 3 1 3 1 3 5 4 3 3 2 2 1 1 1 1 1 1 1 3 1 5 1 2 3 5 5 8 4 5 10 12 13 12 10 11 10 7 6 8 8 8
23 23 23 23 23 23 23 23 23 23 22 21 22 23 22 16 7 2 1 3 3 4 3 2 1 1 1 6 7 7 6 6 7 5 8 10 11 12 8 4 6 7 7 10 9 6 4 2 2 2 1 3 3 4 4 2 3 2 1 1 1 3 2 2 1 3 2 5 2 0 2 4 5 7 5 6 11 12 11 12 11 10 8 6 7 8 9 9
23 24 24 24 23 23 23 23 23 22 22 21 22 22 17 9 4 3 5 7 5 4 3 0 0 2 3 6 4 5 11 9 7 6 7 8 9 12 9 4 3 2 0 2 3 1 2 1 1 1 1 2 3 4 3 3 4 4 3 2 1 3 4 4 1 1 5 6 4 4 3 2 4 7 4 2 6 11 12 11 10 9 8 7 8 9 9 10
24 24 24 24 24 24 23 23 22 22 21 20 20 17 9 6 5 4 6 7 3 1 1 2 2 1 4 6 6 11 15 8 6 5 5 5 4 5 6 4 2 4 2 2 2 1 1 1 2 2 2 3 6 7 7 5 4 5 3 3 3 3 4 4 3 2 4 6 5 6 6 4 4 6 3 5 3 6 11 9 7 8 7 7 8 9 9 10
23 24 24 24 24 24 23 22 21 20 20 18 18 11 4 5 4 2 0 3 3 4 5 4 4 2 6 7 7 11 10 5 4 4 3 4 2 1 1 1 5 5 2 1 2 3 1 0 2 4 6 7 8 6 5 2 3 4 3 3 4 3 3 3 4 2 1 3 4 5 8 8 6 5 3 3 4 6 11 9 7 8 7 7 9 9 10 10
24 24 24 24 24 23 22 21 19 18 16 15 15 7 1 2 3 4 4 3 6 8 8 8 7 8 10 9 8 7 4 2 3 3 3 3 3 2 3 3 5 2 2 2 2 3 2 2 6 8 9 8 5 3 3 3 3 4 4 4 3 2 2 2 3 4 0 1 2 2 8 8 5 4 2 1 2 6 10 10 10 10 8 7 9 11 10 8
24 24 25 24 23 22 21 19 18 16 12 11 11 4 2 4 4 5 2 5 8 5 7 8 7 9 12 13 14 8 1 1 4 5 2 3 3 1 1 3 4 2 3 2 1 4 3 3 10 10 7 4 2 4 4 3 4 4 4 5 3 3 4 4 4 5 2 1 1 2 8 7 4 4 3 3 3 4 4 5 9 11 9 8 9 11 10 7
24 25 25 24 23 22 20 17 16 12 8 12 11 5 6 12 13 8 2 2 8 5 4 3 4 5 7 8 9 6 2 3 3 6 4 6 1 2 3 3 2 1 2 2 2 1 3 6 8 6 4 2 2 4 3 3 3 3 4 4 3 5 4 2 5 7 2 0 2 3 5 4 3 4 3 5 5 4 3 4 5 9 11 10 10 11 10 9
23 25 25 24 23 21 19 17 12 6 9 15 11 8 15 18 16 9 1 1 5 5 4 4 4 5 4 5 3 7 3 3 3 3 6 9 2 2 4 3 3 0 2 4 6 4 7 10 5 2 3 4 3 4 4 5 3 3 5 4 4 9 5 2 7 9 3 2 2 6 4 1 3 4 4 5 5 4 2 3 4 8 10 11 11 11 10 11
24 25 25 25 22 20 19 12 3 4 13 13 6 11 18 17 14 6 0 2 3 5 5 3 2 2 3 2 3 6 2 2 4 4 7 10 6 3 2 2 3 2 5 5 5 4 10 11 4 3 4 6 4 5 5 6 4 2 5 4 6 9 6 7 11 9 4 1 3 5 5 4 5 6 6 5 4 5 2 2 4 7 8 8 11 11 10 10
25 25 26 24 22 21 15 4 1 9 13 6 6 14 16 16 14 3 2 4 2 5 4 1 1 1 2 1 2 3 4 3 5 4 7 10 9 4 2 1 1 2 5 3 3 3 6 7 4 7 7 6 5 5 6 7 5 2 5 4 6 7 8 11 12 6 2 3 2 2 3 3 4 7 8 6 6 7 4 3 4 4 6 7 9 10 9 10
25 26 26 24 22 19 10 2 6 11 5 3 10 15 15 18 13 1 3 5 2 3 2 2 1 0 2 1 3 5 2 5 3 2 5 10 6 2 1 3 1 3 3 2 1 2 4 5 3 7 6 5 5 5 7 8 6 3 2 8 10 9 9 10 7 3 1 3 3 2 1 1 3 7 9 7 7 8 7 6 5 4 6 8 9 10 10 12
25 25 25 23 20 17 9 6 9 6 2 6 13 14 17 18 7 4 4 3 1 2 1 3 1 1 3 0 3 3 3 3 1 3 4 8 6 3 1 5 4 5 3 3 3 5 2 4 7 7 5 5 5 7 8 9 5 1 6 12 11 8 8 6 3 3 2 2 2 5 3 1 3 4 6 7 9 10 9 8 7 5 6 7 9 10 10 12
26 25 24 21 18 14 9 8 7 3 4 10 14 16 18 12 2 4 4 2 1 2 1 1 2 3 3 1 1 1 2 1 1 4 2 4 5 1 2 6 5 5 4 4 5 7 4 6 6 4 4 6 7 8 10 12 7 5 12 14 11 8 7 4 3 3 2 1 1 5 6 3 2 3 6 7 9 11 9 8 7 6 6 7 8 9 9 11
26 24 22 19 15 11 8 9 6 3 5 12 16 18 14 5 4 5 2 1 2 3 1 1 2 2 2 2 4 2 2 2 2 2 3 1 2 2 1 2 3 1 3 1 5 8 7 5 3 3 4 6 5 3 8 14 13 11 12 12 9 6 4 3 2 2 2 1 1 5 5 2 1 3 6 6 6 8 9 7 8 7 7 7 6 7 8 9
26 23 20 17 13 8 6 6 2 2 6 13 17 15 7 3 4 5 1 2 2 3 3 2 3 3 1 2 3 2 1 3 1 2 2 2 3 4 2 3 3 2 4 4 3 6 7 3 2 4 2 5 8 8 8 15 16 10 6 7 7 3 2 3 3 2 1 2 2 5 3 0 2 4 4 4 5 8 10 10 11 10 9 7 6 6 8 9
24 21 18 14 11 9 7 5 4 5 9 12 13 7 4 3 3 2 2 2 1 2 2 3 3 4 2 1 1 2 1 2 2 2 1 1 2 1 1 2 1 3 3 3 4 6 5 3 3 4 2 8 11 9 5 7 8 7 5 5 5 3 3 2 2 1 1 2 1 4 4 1 4 4 4 5 8 11 11 11 11 11 10 8 7 7 7 8
23 20 15 11 10 11 9 8 8 8 9 10 7 4 6 4 1 2 3 2 1 2 1 3 3 2 2 4 2 3 2 1 2 2 1 1 2 3 2 3 3 2 1 2 2 4 4 4 4 4 3 3 9 11 5 1 3 7 7 4 4 3 2 1 2 2 2 3 1 3 3 2 3 4 6 9 10 11 11 12 11 11 11 10 8 8 6 8
23 18 13 10 10 10 8 8 8 6 8 7 4 4 4 2 2 3 3 3 3 2 1 2 4 4 5 3 2 1 2 1 1 2 2 2 3 4 4 3 1 3 2 0 1 0 1 3 4 2 1 2 3 11 12 9 8 6 3 3 4 5 4 3 4 2 1 1 2 3 2 3 2 2 4 8 11 11 10 11 10 9 9 8 7 7 6 8
22 16 11 10 7 4 3 5 6 4 4 4 6 4 2 2 3 2 3 4 2 3 4 3 3 5 5 3 3 2 2 1 1 3 3 2 2 2 3 4 3 2 3 2 1 0 1 2 5 4 3 3 4 7 9 10 7 3 0 3 2 4 5 3 3 4 4 2 2 2 2 2 3 2 3 3 7 10 10 10 10 10 8 7 7 7 7 8
21 15 9 7 4 1 1 4 6 4 0 4 6 2 2 3 3 3 3 2 1 1 3 5 5 4 4 4 4 5 2 1 3 4 3 2 2 1 1 2 3 3 2 1 1 1 2 4 6 5 4 2 5 6 8 8 5 1 0 2 3 2 6 5 1 1 3 2 1 2 2 2 1 2 3 3 4 7 10 11 11 11 10 9 8 8 8 8
23 15 7 7 6 1 4 4 6 5 3 6 4 1 3 3 4 4 2 2 2 1 4 3 2 2 2 2 3 5 3 2 3 3 1 2 1 2 1 2 2 2 1 2 1 1 1 4 6 4 7 6 2 6 5 6 5 5 2 5 2 2 3 4 2 2 2 1 1 1 3 2 1 1 3 6 6 7 9 11 11 11 11 11 9 9 9 9
22 12 6 7 5 5 6 5 7 6 4 5 2 2 2 2 3 4 1 2 4 1 5 2 1 1 1 1 2 5 2 2 3 2 1 2 1 2 1 2 2 4 4 2 2 1 2 2 6 2 5 8 4 6 2 6 3 2 4 4 3 2 1 2 2 1 1 1 1 1 3 3 4 3 4 8 10 10 9 10 11 12 12 11 10 10 10 9
12 5 4 4 1 6 9 9 8 5 5 3 0 3 2 3 5 5 4 3 2 1 3 2 1 1 1 2 1 3 2 1 1 2 1 0 1 1 2 0 2 4 5 4 3 1 2 2 4 5 6 6 4 4 2 4 6 3 1 2 2 2 3 2 2 3 3 2 2 1 2 3 4 5 7 10 12 11 10 10 11 12 13 11 10 9 9 9
3 2 3 3 4 7 12 11 6 5 3 1 2 3 2 3 5 6 5 3 2 2 2 3 2 1 1 1 1 1 1 1 2 2 0 0 1 3 2 0 2 3 4 6 4 0 2 3 2 6 7 3 1 1 2 3 3 3 2 0 1 0 1 2 1 1 3 3 2 1 1 4 4 4 8 10 10 10 10 10 10 11 11 8 7 7 7 7
3 3 2 4 5 10 13 7 3 3 2 1 2 3 3 2 3 6 6 3 3 2 3 4 4 3 2 0 1 1 0 2 1 1 0 0 1 1 3 2 1 3 3 5 5 2 2 2 1 4 5 2 3 3 2 1 3 3 2 0 2 2 2 2 1 2 2 3 3 3 2 4 4 1 5 7 7 6 8 9 8 9 10 9 7 7 7 7
2 1 3 3 3 12 10 3 1 1 2 2 2 3 3 2 3 4 5 3 2 2 1 3 3 3 2 2 1 1 2 2 1 1 1 1 2 3 3 4 2 2 3 2 2 2 1 3 2 2 4 4 6 7 5 3 2 3 3 2 1 1 3 4 3 3 1 2 1 2 1 4 4 3 2 5 5 5 7 8 9 9 9 9 7 6 6 7
1 3 4 2 7 13 7 3 3 1 2 4 3 3 2 2 3 3 3 3 2 1 2 2 1 1 1 2 2 2 2 2 1 1 0 2 0 2 5 5 2 3 4 2 3 2 1 3 3 3 5 5 6 5 3 5 5 3 3 4 3 3 1 3 5 3 3 2 1 1 1 3 3 5 2 2 4 6 4 4 8 9 8 9 9 6 5 6
1 5 4 2 8 11 4 1 3 3 4 3 4 4 3 3 5 5 5 4 3 2 2 1 1 1 1 1 2 2 2 2 1 1 0 0 0 2 5 5 5 5 2 0 1 1 2 1 3 4 4 6 7 5 5 7 6 3 3 5 4 5 4 1 1 3 2 2 3 4 3 3 3 5 5 5 5 6 4 2 4 7 8 9 9 7 6 6
3 3 4 5 0 4 3 4 3 2 3 3 4 5 4 3 5 6 6 5 3 4 3 2 2 2 1 3 3 1 2 3 1 2 1 1 2 3 5 7 5 4 2 2 2 2 2 1 3 4 3 2 3 3 3 5 4 3 5 7 7 7 5 2 1 3 1 2 2 4 3 1 2 5 6 6 5 5 4 4 2 3 6 7 7 7 7 7
3 1 3 6 5 4 1 1 3 2 1 3 3 4 3 3 5 4 4 4 3 3 3 0 2 3 4 4 3 3 3 2 2 2 2 1 2 2 4 5 3 4 4 3 3 3 4 2 2 5 5 4 4 4 5 3 3 4 7 9 9 9 6 2 4 3 2 2 1 3 4 4 2 3 5 4 5 4 3 4 3 2 3 3 4 5 5 5
1 1 1 2 3 3 2 3 4 2 0 0 2 3 3 4 6 3 1 2 3 2 3 1 1 2 2 3 3 1 2 3 3 3 0 2 2 3 4 3 3 5 5 3 3 3 5 2 0 5 4 4 6 5 4 3 4 4 7 10 11 11 8 5 3 2 3 3 2 4 4 5 2 2 4 3 4 4 3 4 4 2 3 3 3 4 4 4
0 1 1 1 0 1 1 3 4 3 3 1 2 2 4 7 7 4 3 2 0 2 3 2 3 1 6 6 4 2 1 3 3 1 0 1 2 3 6 4 3 6 5 3 3 3 6 1 3 4 2 3 5 3 1 5 3 2 6 9 10 11 9 6 2 4 3 4 3 2 5 6 2 3 4 4 4 5 4 4 3 3 3 3 3 3 4 4
1 1 2 2 0 2 3 4 4 3 4 3 1 2 3 6 7 6 4 2 2 2 3 4 2 3 6 6 6 4 3 2 0 2 2 0 2 2 3 3 3 4 5 4 3 2 5 0 2 4 2 2 3 1 3 5 3 3 6 8 8 8 7 4 5 4 4 5 3 5 10 8 4 4 4 4 4 4 4 5 4 5 5 4 4 3 3 3
1 1 3 3 2 2 3 3 1 2 4 3 1 3 2 3 6 8 5 2 2 2 3 6 6 5 5 5 6 4 6 7 5 3 4 3 2 1 0 1 3 4 5 3 1 3 3 0 1 3 3 1 3 2 0 3 4 4 6 9 9 8 7 6 6 6 6 7 7 8 9 7 5 5 6 6 5 5 6 6 5 4 4 5 5 4 3 3
3 3 1 2 2 3 2 3 2 2 2 2 1 2 3 3 4 7 6 4 6 5 6 10 8 3 3 5 7 4 6 8 7 6 6 5 2 3 2 2 4 1 4 1 1 3 3 1 2 4 4 2 3 3 3 1 3 5 6 9 10 7 5 5 6 5 5 4 4 6 5 3 4 5 6 6 6 7 7 6 5 4 4 4 5 5 5 4
5 3 2 3 1 2 1 2 3 1 2 2 1 3 4 5 5 4 5 5 2 5 9 12 9 5 4 5 7 7 8 9 8 7 7 5 4 4 4 3 4 3 0 1 1 1 3 3 1 3 2 3 4 3 2 1 3 4 3 4 4 2 0 2 5 7 6 3 3 3 3 2 4 6 6 7 7 7 6 6 5 5 4 4 4 5 6 5
Wind_Direction
13 13 13 13 12 11 10 9 8 6 6 3 1 359 355 354 348 346 343 341 342 339 343 344 339 338 341 343 336 331 330 327 321 306 259 266 275 260 236 187 173 186 201 207 192 158 144 153 177 177 164 170 184 201 185 167 110 118 153 156 190 198 189 192 185 166 138 168 183 202 198 133 128 137 99 76 70 103 102 80 99 93 96 111 122 131 132 135
14 15 15 14 13 12 11 9 8 6 5 4 5 5 2 360 355 352 346 341 339 335 341 345 337 336 342 347 338 330 330 326 316 289 262 271 278 252 207 180 167 175 196 207 219 189 133 118 131 150 143 152 219 177 167 158 141 167 165 160 226 213 182 197 169 140 150 174 163 159 177 146 136 138 128 119 111 111 106 111 119 107 103 110 123 130 133 137
15 15 15 14 13 11 9 7 6 4 3 4 5 5 3 1 359 357 351 344 339 334 340 348 345 340 347 346 334 329 327 325 318 278 289 305 254 235 193 183 180 156 183 202 211 181 148 116 97 115 122 179 282 185 169 162 194 179 136 187 244 204 164 217 172 148 167 171 147 152 173 145 132 130 133 137 133 130 132 144 136 125 127 127 130 134 137 140
16 15 14 13 11 9 7 4 3 2 3 5 6 6 5 3 0 358 355 348 341 338 340 351 351 344 350 342 328 328 327 337 322 269 328 8 229 210 188 191 193 172 189 208 165 165 166 106 76 85 101 197 279 200 187 194 192 180 159 202 235 167 149 201 172 146 140 158 153 149 145 141 146 121 136 140 133 145 159 159 149 141 140 138 139 140 143 145
15 13 12 11 9 7 4 1 359 359 0 3 6 5 4 4 1 358 356 350 345 342 344 355 355 346 345 338 328 326 343 52 256 270 309 316 238 205 194 193 196 183 184 204 244 210 170 104 74 69 87 221 228 185 205 188 164 179 202 188 180 167 150 159 146 117 113 130 138 142 142 151 155 111 141 151 150 168 171 159 151 146 145 144 144 144 146 149
13 11 10 8 6 3 1 358 356 356 356 359 3 1 360 360 358 358 356 353 349 346 351 1 356 345 341 339 332 334 19 122 261 266 260 275 248 212 200 190 191 186 189 208 240 192 143 107 80 88 147 220 203 200 212 176 146 202 237 153 157 170 123 145 134 120 129 134 151 161 151 142 129 112 143 160 161 169 161 150 147 144 144 143 144 145 149 156
10 7 6 5 3 360 357 354 352 352 352 355 358 357 355 354 355 356 353 351 350 350 355 357 354 344 346 349 335 5 55 250 270 268 244 250 244 204 199 200 198 189 197 205 202 175 129 120 124 156 182 268 217 216 207 140 143 207 235 120 145 107 100 154 145 143 143 142 161 140 94 105 128 136 141 157 163 156 148 139 138 139 140 142 145 149 153 162
5 3 1 1 359 356 354 350 348 348 349 351 352 352 352 350 350 351 350 347 348 353 354 354 358 349 353 1 351 9 6 259 271 281 261 239 231 194 189 203 207 201 203 207 195 174 141 132 166 186 202 270 220 200 152 122 188 229 102 111 123 64 93 95 108 134 127 116 131 97 70 28 334 191 136 152 156 143 141 134 135 140 141 145 151 154 156 166
0 359 357 357 354 352 350 346 345 344 346 348 347 346 348 346 345 347 347 343 345 352 356 359 357 355 1 6 59 38 252 247 293 273 269 245 239 211 192 201 204 202 205 213 201 176 164 163 192 203 214 275 239 164 152 137 242 197 102 112 108 62 80 94 89 120 116 81 117 115 94 54 328 323 90 156 154 141 140 137 140 146 147 153 156 159 161 167
356 355 354 353 350 349 346 343 342 342 344 344 342 341 344 343 342 343 342 340 342 344 356 8 356 3 8 12 68 71 221 268 303 255 256 258 242 219 210 211 202 198 201 208 194 181 190 180 184 220 232 295 283 159 164 150 104 106 99 99 86 63 45 57 83 105 104 32 37 135 119 89 351 321 30 167 156 142 142 142 146 150 153 160 159 163 165 167
355 354 353 351 348 346 344 341 339 341 342 340 338 338 340 340 339 339 337 336 335 337 353 1 355 7 14 66 86 206 229 287 307 245 269 270 247 237 229 224 210 199 197 191 191 199 207 202 18 1 224 301 345 79 135 114 101 108 109 90 61 57 32 14 71 114 124 70 336 122 100 56 24 315 217 175 160 146 146 149 153 155 157 163 160 162 167 168
354 353 352 350 346 344 341 339 338 339 339 337 335 336 338 337 336 336 332 329 328 330 348 354 359 3 357 84 177 210 214 312 309 281 280 271 252 258 258 235 222 206 199 188 201 210 213 222 353 334 270 310 11 84 108 103 107 118 111 97 80 79 37 337 5 263 149 133 310 109 97 88 218 300 253 177 160 148 148 153 158 160 160 165 159 157 167 165
354 353 352 349 346 344 340 338 338 338 336 335 334 336 336 331 332 333 325 323 321 322 356 37 344 344 14 290 238 237 282 304 297 278 267 259 251 257 256 237 231 217 206 207 217 217 219 228 234 230 258 313 286 153 125 84 96 104 60 105 122 112 122 288 283 230 148 111 334 125 142 187 199 268 260 182 158 148 149 157 160 163 167 168 156 151 161 160
354 353 351 349 346 343 339 338 338 337 335 335 335 336 332 328 330 328 319 312 309 316 64 69 344 1 59 270 280 301 308 308 289 263 251 241 238 248 247 228 226 223 218 228 238 234 230 233 228 241 261 220 187 130 90 34 29 79 57 95 113 165 185 300 269 155 152 81 345 100 170 180 184 226 247 199 161 151 152 162 162 166 174 169 151 151 158 163
353 352 351 349 346 342 339 339 338 336 334 334 336 336 330 328 327 321 312 299 291 249 108 45 12 29 25 288 294 315 299 302 286 253 236 234 223 235 246 222 225 231 228 239 247 251 264 286 256 258 272 190 139 108 59 15 14 55 138 269 19 264 144 43 30 120 142 124 352 345 167 166 187 209 227 191 165 155 155 165 166 173 178 164 148 157 161 167
351 351 350 347 345 342 340 340 338 334 333 335 336 335 332 329 327 319 301 247 214 153 118 49 39 77 73 290 305 315 284 269 280 249 212 227 217 230 249 225 231 238 233 243 252 260 274 313 259 220 197 124 121 112 66 27 348 347 116 162 138 125 189 161 30 347 110 125 43 312 150 143 191 211 202 164 168 160 159 168 172 180 180 160 150 162 164 164
350 350 349 346 344 342 341 340 337 333 334 337 337 337 336 336 337 334 160 147 143 148 133 86 26 17 265 284 311 320 295 260 269 255 211 218 225 241 252 223 237 236 234 246 254 267 258 218 225 235 93 97 124 110 77 353 286 302 76 113 166 145 171 170 56 326 138 136 152 36 119 138 172 197 181 159 170 163 163 174 177 185 180 155 155 165 164 164
349 348 348 345 343 342 342 340 336 333 336 340 341 340 344 358 31 86 127 123 117 133 123 166 91 29 271 277 305 297 297 282 256 252 224 214 230 245 239 218 213 177 58 295 264 253 211 228 85 119 46 93 129 127 145 218 216 204 181 149 145 150 181 192 156 160 154 158 161 119 133 174 161 175 160 111 176 170 171 180 178 185 178 154 160 166 165 167
348 348 347 344 343 343 342 339 336 335 338 343 343 342 355 22 48 95 124 118 90 90 290 263 184 31 271 263 284 291 291 270 231 248 224 195 215 238 224 215 115 113 90 17 327 300 169 355 41 142 186 168 182 188 190 194 177 181 175 129 132 146 192 198 138 124 159 160 157 149 161 178 177 174 133 31 323 196 177 181 178 182 177 157 161 168 168 170
348 348 346 344 343 344 343 340 336 338 341 344 344 349 18 14 17 7 169 160 199 220 237 246 191 228 280 270 285 296 288 246 215 240 196 168 159 62 330 26 50 54 73 165 273 305 109 92 262 207 213 212 204 200 192 175 141 138 101 91 118 142 180 179 140 123 282 145 146 171 161 158 168 167 122 58 325 242 186 178 180 181 176 161 163 170 171 172
348 347 346 344 343 345 345 339 336 339 341 341 349 14 115 340 357 321 320 279 241 213 223 238 205 224 259 258 262 276 283 249 242 251 207 162 106 60 326 27 65 14 296 192 240 328 69 199 245 224 218 223 197 160 187 193 153 130 119 118 111 160 156 111 142 149 30 66 86 156 148 141 140 120 102 104 293 242 195 181 181 179 176 165 163 171 172 169
347 347 345 343 343 346 344 338 335 336 337 341 354 28 208 317 328 283 305 317 286 233 231 243 211 239 259 260 259 252 263 286 280 289 217 137 76 144 279 55 100 234 301 51 26 342 355 245 247 240 227 225 158 169 205 181 147 120 119 137 136 167 132 91 138 152 141 96 68 167 148 127 96 100 136 202 254 251 224 205 187 175 172 170 167 169 168 161
345 345 344 342 341 345 343 336 333 332 338 340 338 329 327 346 341 308 228 280 296 286 266 241 190 237 267 274 252 207 194 219 244 288 192 139 80 178 140 80 117 245 7 94 177 263 293 249 249 249 211 204 229 215 193 132 138 139 139 146 149 170 164 126 158 153 135 82 130 163 146 117 90 87 141 218 255 269 283 280 213 181 175 174 173 169 165 162
343 343 343 340 339 344 341 332 329 331 336 332 327 337 343 349 349 330 224 187 298 292 268 233 206 217 235 278 208 157 193 213 181 260 177 144 130 171 155 148 132 200 257 189 183 204 251 254 264 336 170 175 225 227 162 143 177 205 175 157 161 184 191 100 144 144 104 44 128 140 133 160 160 136 176 218 259 274 290 307 242 201 186 176 172 171 167 166
343 341 340 338 338 341 338 329 319 333 331 326 330 347 343 346 353 339 203 46 320 290 286 260 268 237 216 238 176 160 160 243 214 210 170 158 164 158 176 180 129 226 246 210 185 216 259 258 247 272 227 162 188 225 186 170 173 213 216 198 174 178 153 114 139 140 109 167 197 167 171 198 175 167 193 204 237 252 278 328 242 209 196 182 173 173 172 169
341 338 337 337 335 338 341 336 326 332 329 324 342 342 337 344 352 344 132 43 332 292 313 315 7 275 255 168 164 105 61 298 246 177 163 176 179 145 149 232 82 229 232 207 185 210 259 257 195 221 227 165 177 223 204 172 150 204 233 179 134 133 126 137 150 145 136 173 181 198 191 181 175 189 201 198 218 232 238 271 258 216 198 192 181 175 172 171
339 336 335 333 333 339 343 296 317 327 322 318 336 336 334 345 354 99 99 30 338 294 290 279 5 61 277 197 128 84 77 278 287 138 175 183 186 56 104 232 302 247 224 104 339 245 248 285 243 214 213 162 169 223 212 170 152 226 197 123 117 120 133 148 148 116 100 103 109 197 199 121 205 200 193 194 211 227 235 242 251 234 208 201 192 180 174 173
336 334 331 329 331 334 328 304 312 313 254 319 333 333 334 341 354 119 80 49 338 320 242 271 307 274 295 212 117 109 213 254 20 259 225 172 176 54 14 225 200 234 229 117 274 266 223 272 255 215 188 165 192 220 193 147 122 202 115 106 107 110 118 129 105 57 57 84 147 211 186 149 244 187 167 188 206 217 225 225 228 231 218 207 199 187 178 177
335 333 329 325 327 327 320 304 301 280 290 327 337 332 332 337 18 88 69 90 336 306 196 323 321 284 315 26 52 301 243 28 155 257 311 149 196 132 202 217 185 231 245 159 226 263 241 229 225 193 170 193 215 209 167 133 115 125 109 94 87 87 85 88 82 64 49 23 221 215 196 190 252 169 167 192 205 209 212 218 222 222 219 210 202 192 182 181
334 333 327 322 322 322 315 300 283 240 305 329 332 327 333 352 80 62 45 191 280 269 248 347 311 307 41 57 313 305 179 239 242 291 13 98 261 355 252 222 115 200 284 214 230 258 269 242 184 186 201 196 183 140 129 124 124 121 104 92 86 76 69 72 58 79 90 312 219 215 218 209 238 193 187 194 197 198 198 208 215 212 217 210 200 195 184 183
334 332 323 316 313 303 300 304 274 228 310 326 326 329 350 42 74 78 140 230 257 290 335 320 287 314 336 164 289 316 148 250 294 36 343 347 1 8 351 348 36 34 350 346 291 282 299 290 208 246 223 135 99 76 96 119 123 118 106 111 104 57 22 46 8 29 144 253 183 189 207 169 234 221 192 187 190 195 198 205 206 202 207 205 197 196 186 185
334 330 318 308 295 273 259 268 283 298 312 322 328 347 60 47 25 95 251 303 292 297 321 275 277 301 286 128 301 305 114 266 335 77 176 342 346 306 202 209 199 17 343 318 331 326 308 265 265 317 53 116 107 90 88 112 119 124 130 122 98 50 13 32 338 330 235 264 157 156 164 177 252 247 209 201 203 203 202 204 203 199 199 197 195 195 186 182
334 328 317 301 284 274 268 270 280 291 306 320 341 39 82 69 28 226 270 324 251 242 256 263 292 331 71 68 337 309 54 309 327 45 140 79 0 315 280 213 160 105 257 250 334 346 327 309 332 15 41 111 120 124 134 163 157 152 153 142 115 110 86 118 241 279 257 262 30 103 157 202 282 265 221 212 214 210 206 204 201 197 195 194 193 191 183 179
334 329 316 301 292 286 274 265 266 278 305 334 31 63 65 75 229 248 274 263 249 288 326 282 316 8 54 68 293 313 66 295 292 66 45 38 39 0 336 331 93 138 172 316 307 14 36 323 328 25 353 304 152 156 161 160 166 180 183 137 134 151 150 167 197 196 201 224 82 99 173 196 203 265 230 213 215 208 202 206 204 198 194 190 187 182 178 180
335 328 315 305 304 301 259 235 237 257 304 17 64 71 93 192 248 249 241 252 278 324 327 340 33 33 14 343 320 350 109 245 345 55 41 50 70 9 347 335 343 64 80 35 295 259 97 247 269 279 237 201 195 180 154 137 152 225 277 98 152 191 149 133 173 162 141 128 136 165 235 223 195 276 304 238 223 204 192 200 205 205 196 179 181 185 183 184
336 332 321 304 302 335 135 193 198 203 218 67 65 62 174 207 222 192 220 263 292 274 341 4 41 51 351 324 331 342 24 59 30 41 21 38 69 337 333 299 318 34 68 159 280 1 12 282 282 321 342 212 187 179 164 151 152 196 288 175 227 198 123 114 84 61 94 108 188 187 254 286 227 278 266 222 233 212 199 200 201 204 198 183 185 189 187 186
336 335 315 289 291 210 145 166 172 164 94 78 87 199 213 219 215 199 229 312 297 146 81 34 7 66 351 327 320 322 354 21 24 44 6 8 349 270 312 294 287 18 19 169 156 251 176 285 295 17 6 311 211 132 165 194 152 117 200 224 216 29 67 104 97 27 62 188 237 200 236 236 182 267 231 203 215 216 207 205 202 202 198 193 193 189 190 190
330 327 305 290 277 181 161 155 147 131 75 69 88 240 215 225 236 218 233 317 302 32 84 95 250 134 147 90 304 299 340 15 4 36 26 5 309 234 49 314 290 358 359 93 82 330 111 323 295 354 359 318 355 81 138 256 264 147 192 199 127 79 341 86 108 128 146 224 253 244 257 230 203 217 194 195 211 210 204 206 204 204 200 197 195 188 188 188
327 336 328 336 26 179 174 156 135 92 56 67 199 246 224 246 262 252 250 268 270 85 93 188 199 63 138 147 220 284 351 38 38 66 69 53 334 339 90 259 303 351 10 69 84 301 70 65 288 303 336 334 359 61 132 267 302 335 108 148 122 143 171 157 155 154 146 180 231 233 274 251 228 208 179 189 206 201 196 201 203 206 205 200 196 190 188 187
355 25 303 11 50 179 168 142 107 65 66 177 206 228 263 275 270 275 265 229 186 133 136 189 168 87 232 217 282 285 32 82 141 117 128 187 346 319 318 267 323 342 24 61 71 12 45 66 289 308 337 2 16 56 137 203 272 327 36 216 284 321 121 146 182 156 128 145 183 174 265 265 255 199 172 180 197 194 189 194 198 198 192 184 175 173 178 181
21 17 244 45 68 163 152 113 78 97 138 226 218 224 264 263 259 293 290 239 200 194 157 158 165 169 189 200 341 266 58 38 53 98 177 14 112 307 336 12 335 325 25 42 31 18 29 64 30 326 338 338 273 295 335 282 212 184 118 29 257 213 135 119 222 260 116 130 172 160 200 268 284 261 172 174 186 186 175 176 180 174 164 160 162 163 163 165
32 30 231 16 106 161 133 84 255 140 154 215 228 226 247 263 247 275 288 277 234 214 116 127 160 160 161 175 204 198 116 72 6 80 144 279 158 172 319 340 339 356 67 66 325 296 122 87 67 311 285 274 276 286 320 7 104 143 103 40 308 201 110 120 191 231 126 106 154 134 185 258 295 322 215 176 173 167 161 162 161 158 159 165 177 176 163 159
73 264 273 332 181 166 105 32 266 310 234 235 268 252 239 277 266 251 259 273 259 210 54 68 127 111 168 180 173 164 123 122 196 155 279 308 209 211 299 329 34 48 57 60 317 305 68 61 28 319 293 308 311 296 327 32 47 56 13 8 2 322 297 173 186 181 147 160 145 98 248 259 311 337 340 135 135 138 144 156 153 152 163 179 189 184 162 150
306 263 288 17 179 176 114 137 222 270 269 279 303 284 267 249 250 255 244 234 215 166 119 144 186 199 204 124 105 171 136 108 179 275 112 102 346 312 336 12 66 68 38 104 263 340 20 47 48 27 354 351 351 343 354 6 16 26 320 326 338 328 316 260 160 76 102 206 153 140 224 266 334 359 24 54 85 104 84 51 138 152 168 187 193 179 158 147
335 256 274 335 70 153 147 172 170 238 282 315 302 290 304 275 258 251 230 219 210 167 142 181 183 141 113 68 59 34 75 106 175 319 21 64 307 319 355 10 59 73 337 256 175 88 69 74 90 91 75 25 2 324 313 321 329 340 320 323 342 347 337 311 131 95 160 238 154 148 203 262 13 29 36 40 57 74 63 47 66 138 164 179 181 169 161 157
9 356 287 328 8 53 83 189 100 98 301 352 318 289 298 290 285 262 200 203 221 165 117 148 173 103 61 62 65 20 22 78 95 38 27 343 303 288 330 348 51 51 352 355 56 82 91 58 88 125 137 167 189 231 256 279 327 332 325 334 349 347 340 27 110 132 188 205 212 204 164 128 90 54 50 47 59 63 68 83 88 105 126 139 147 150 149 147
50 330 326 341 345 8 8 3 41 57 279 331 281 273 288 292 294 297 227 211 206 140 93 53 74 103 114 98 89 51 3 15 40 73 142 288 281 283 311 345 39 7 351 22 30 72 91 55 186 123 126 189 193 223 275 12 22 338 338 350 354 349 355 42 86 217 198 143 249 250 145 118 135 121 105 110 111 109 115 118 129 128 93 87 99 113 120 118
233 277 346 84 292 308 5 332 341 345 324 291 233 286 332 320 311 305 288 285 29 82 90 50 6 162 172 150 120 127 40 19 9 20 205 302 321 336 335 340 0 355 4 23 4 86 102 123 203 137 111 218 201 219 4 45 18 345 16 11 360 352 360 34 22 276 199 151 246 259 109 104 116 124 122 135 132 126 126 124 124 117 99 96 106 112 117 113
347 334 320 19 52 223 239 283 302 332 336 329 334 0 354 329 325 313 286 317 0 354 101 107 274 220 171 139 115 136 166 135 269 265 216 254 356 18 0 331 321 355 38 40 352 78 105 163 211 138 124 212 209 218 64 58 20 4 22 16 12 1 348 7 13 1 68 97 75 76 87 84 79 97 100 102 106 99 102 110 117 120 121 122 126 128 118 108
11 339 324 3 356 279 267 290 319 18 348 347 337 321 311 305 326 323 301 195 185 268 115 142 195 196 155 122 110 146 192 167 159 192 166 127 12 349 177 239 255 332 23 55 356 40 90 259 278 104 89 303 278 285 59 95 75 38 10 5 13 11 351 357 11 14 43 68 75 80 82 74 69 84 82 84 96 95 98 110 112 109 110 114 123 128 118 111
320 283 334 44 326 305 305 312 14 61 0 357 355 294 294 284 312 322 297 230 183 185 158 158 172 152 95 99 110 154 200 168 155 171 166 152 152 184 205 201 186 300 358 34 43 37 84 108 344 62 72 277 280 321 293 254 51 22 6 3 2 8 12 4 4 6 11 37 59 59 63 70 88 96 85 83 94 90 82 82 76 64 68 88 105 107 101 113
350 313 18 80 264 302 7 322 346 24 242 268 317 306 288 281 300 328 311 295 237 175 166 159 153 122 99 120 143 180 192 175 172 180 173 160 145 166 209 209 161 156 196 130 71 63 115 115 87 88 83 275 286 358 358 15 10 329 321 356 345 343 3 324 356 11 360 356 43 37 4 24 82 89 79 70 73 68 56 51 50 50 60 77 97 100 91 90